GW1211 Weather Reports


time (UTC)temp
C
wind
direction
speed
KPH
gust
KPH
rain 1hr
cm
rain 24hr
cm
rain mn
cm
humidity
%
barometer
mb
20260503230110 18 324 9.7 14.5 0.00 0.00 0.00 61 1011.3
20260503225608 18 16 11.3 17.7 0.00 0.00 0.00 61 1011.2
20260503225107 18 309 17.7 22.5 0.00 0.00 0.00 61 1011.3
20260503224605 18 340 9.7 20.9 0.00 0.00 0.00 61 1011.5
20260503224103 18 327 12.9 20.9 0.00 0.00 0.00 61 1011.6
20260503223601 18 327 11.3 17.7 0.00 0.00 0.00 60 1011.5
20260503223056 18 337 14.5 24.1 0.00 0.00 0.00 60 1011.6
20260503222554 18 334 8.0 12.9 0.00 0.00 0.00 59 1011.6
20260503222052 18 334 9.7 20.9 0.00 0.00 0.00 58 1011.6
20260503221550 19 313 17.7 22.5 0.00 0.00 0.00 57 1011.6
20260503221047 19 341 11.3 20.9 0.00 0.00 0.00 58 1011.8
20260503220543 18 333 19.3 22.5 0.00 0.00 0.00 58 1011.7
20260503220040 18 332 14.5 17.7 0.00 0.00 0.00 59 1011.8
20260503215537 18 331 12.9 16.1 0.00 0.00 0.00 59 1011.8
20260503215034 18 349 16.1 17.7 0.00 0.00 0.00 58 1011.8
20260503214533 18 358 12.9 14.5 0.00 0.00 0.00 58 1011.8
20260503214029 18 329 14.5 20.9 0.00 0.00 0.00 57 1011.9
20260503213527 19 356 11.3 17.7 0.00 0.00 0.00 55 1011.7
20260503213024 20 353 17.7 20.9 0.00 0.00 0.00 54 1011.8
20260503212521 20 327 12.9 17.7 0.00 0.00 0.00 52 1011.9
20260503212018 21 339 12.9 17.7 0.00 0.00 0.00 51 1011.8
20260503211515 21 3 12.9 20.9 0.00 0.00 0.00 52 1011.9
20260503211011 20 7 14.5 17.7 0.00 0.00 0.00 52 1011.9
20260503210508 20 323 14.5 16.1 0.00 0.00 0.00 54 1011.7
20260503210003 20 338 12.9 16.1 0.00 0.00 0.00 53 1012.1
20260503205500 20 354 14.5 17.7 0.00 0.00 0.00 53 1011.9
20260503204956 20 341 19.3 22.5 0.00 0.00 0.00 53 1012.0
20260503204454 20 352 16.1 20.9 0.00 0.00 0.00 53 1012.0
20260503203950 21 324 14.5 20.9 0.00 0.00 0.00 52 1012.0
20260503203448 21 343 16.1 20.9 0.00 0.00 0.00 50 1012.1
20260503202944 21 11 9.7 11.3 0.00 0.00 0.00 49 1012.2
20260503202443 22 348 17.7 20.9 0.00 0.00 0.00 47 1012.3
20260503201941 26 328 17.7 24.1 0.00 0.00 0.00 40 1012.3
20260503201438 27 36 12.9 22.5 0.00 0.00 0.00 32 1012.2
20260503200935 27 22 8.0 11.3 0.00 0.00 0.00 33 1012.2
20260503200431 27 346 8.0 11.3 0.00 0.00 0.00 34 1012.0
20260503195928 27 43 1.6 4.8 0.00 0.00 0.00 33 1012.2
20260503195426 27 54 4.8 9.7 0.00 0.00 0.00 35 1012.3
20260503194922 26 64 14.5 20.9 0.00 0.00 0.00 35 1012.6
20260503194419 26 354 11.3 20.9 0.00 0.00 0.00 35 1012.5
20260503193914 26 356 6.4 9.7 0.00 0.00 0.00 35 1012.4
20260503193410 26 356 6.4 12.9 0.00 0.00 0.00 37 1012.4
20260503192906 26 358 9.7 12.9 0.00 0.00 0.00 36 1012.5
20260503192401 27 9 8.0 16.1 0.00 0.00 0.00 37 1012.5
20260503191858 27 359 4.8 11.3 0.00 0.00 0.00 37 1012.5
20260503191355 27 14 1.6 6.4 0.00 0.00 0.00 38 1012.6
20260503190852 26 6 0.0 0.0 0.00 0.00 0.00 39 1012.7
20260503190349 26 55 1.6 4.8 0.00 0.00 0.00 39 1012.6
20260503185846 26 44 0.0 0.0 0.00 0.00 0.00 39 1012.6
20260503185342 26 31 6.4 9.7 0.00 0.00 0.00 39 1012.8
20260503184842 26 357 4.8 6.4 0.00 0.00 0.00 39 1012.7
20260503184338 26 57 0.0 4.8 0.00 0.00 0.00 39 1013.0
20260503183834 26 334 0.0 1.6 0.00 0.00 0.00 40 1012.8
20260503183332 26 7 6.4 12.9 0.00 0.00 0.00 41 1012.9
20260503182829 25 355 8.0 14.5 0.00 0.00 0.00 45 1013.0
20260503182328 25 5 4.8 11.3 0.00 0.00 0.00 46 1013.0
20260503181825 25 3 6.4 6.4 0.00 0.00 0.00 46 1013.1
20260503181322 25 344 0.0 1.6 0.00 0.00 0.00 48 1013.0
20260503180818 25 61 0.0 0.0 0.00 0.00 0.00 49 1013.1
20260503180316 25 5 3.2 6.4 0.00 0.00 0.00 48 1013.2
20260503175812 25 1 6.4 9.7 0.00 0.00 0.00 47 1013.0
20260503175311 25 348 0.0 0.0 0.00 0.00 0.00 46 1013.1
20260503174806 25 36 0.0 0.0 0.00 0.00 0.00 47 1013.0
20260503174304 25 353 0.0 0.0 0.00 0.00 0.00 49 1013.1
20260503173759 24 86 0.0 0.0 0.00 0.00 0.00 50 1013.1
20260503173255 24 56 1.6 3.2 0.00 0.00 0.00 51 1013.2
20260503172752 23 28 3.2 6.4 0.00 0.00 0.00 50 1013.1
20260503172250 23 41 3.2 6.4 0.00 0.00 0.00 49 1013.2
20260503171746 23 69 9.7 12.9 0.00 0.00 0.00 46 1013.4
20260503171243 23 116 0.0 0.0 0.00 0.00 0.00 52 1013.2
20260503170740 23 57 0.0 3.2 0.00 0.00 0.00 54 1013.3
20260503170237 23 0 0.0 0.0 0.00 0.00 0.00 51 1013.3
20260503160159 18 48 3.2 4.8 0.00 0.00 0.00 74 1013.5
20260503150629 15 41 3.2 6.4 0.00 0.00 0.00 85 1013.6
20260503150125 15 78 0.0 0.0 0.00 0.00 0.00 86 1013.7
20260503131019 11 84 0.0 0.0 0.00 0.00 0.00 94 1013.2
20260503130516 11 42 0.0 0.0 0.00 0.00 0.00 94 1013.4
20260503110412 10 53 0.0 0.0 0.00 0.00 0.00 95 1013.8
20260503090303 11 72 0.0 0.0 0.00 0.00 0.00 94 1014.3
20260503081231 10 45 0.0 0.0 0.00 0.00 0.00 94 1014.5
20260503080726 10 50 0.0 0.0 0.00 0.00 0.00 94 1014.5
20260503080224 10 76 0.0 0.0 0.00 0.00 0.00 94 1014.5
20260503072700 10 77 0.0 0.0 0.00 0.00 0.00 94 1014.5
20260503072157 9 61 0.0 0.0 0.00 0.00 0.00 94 1014.4
20260503071654 9 15 0.0 0.0 0.00 0.00 0.00 93 1014.5
20260503071150 9 15 0.0 0.0 0.00 0.00 0.00 93 1014.7
20260503070647 9 15 0.0 0.0 0.00 0.00 0.00 93 1014.6
20260503070146 10 15 0.0 0.0 0.00 0.00 0.00 93 1014.6
20260503060109 10 42 0.0 0.0 0.00 0.00 0.00 93 1014.7
20260503055101 10 42 0.0 0.0 0.00 0.00 0.00 93 1014.9
20260503054557 10 83 0.0 0.0 0.00 0.00 0.00 93 1014.9
20260503054054 10 64 0.0 0.0 0.00 0.00 0.00 93 1014.9
20260503053552 10 92 0.0 0.0 0.00 0.00 0.00 93 1014.9
20260503053050 10 79 0.0 0.0 0.00 0.00 0.00 93 1015.0
20260503052546 10 65 0.0 0.0 0.00 0.00 0.00 92 1015.1
20260503052042 10 71 0.0 0.0 0.00 0.00 0.00 93 1015.0
20260503051538 10 51 0.0 0.0 0.00 0.00 0.00 92 1015.1
20260503051036 10 42 0.0 0.0 0.00 0.00 0.00 92 1014.9
20260503050531 10 43 0.0 0.0 0.00 0.00 0.00 92 1014.9
20260503050029 10 52 0.0 0.0 0.00 0.00 0.00 92 1014.9
20260503045526 10 86 0.0 0.0 0.00 0.00 0.00 92 1014.9
20260503045024 10 70 0.0 0.0 0.00 0.00 0.00 92 1014.9
20260503044520 10 60 0.0 0.0 0.00 0.00 0.00 92 1014.7
20260503044018 10 60 0.0 0.0 0.00 0.00 0.00 92 1014.8
20260503043514 10 53 0.0 0.0 0.00 0.00 0.00 92 1014.6
20260503043010 10 74 0.0 0.0 0.00 0.00 0.00 92 1014.8
20260503042507 10 68 0.0 0.0 0.00 0.00 0.00 92 1014.6
20260503042003 10 3 0.0 0.0 0.00 0.00 0.00 92 1014.7
20260503041500 10 11 0.0 0.0 0.00 0.00 0.00 92 1014.3
20260503040958 10 16 0.0 0.0 0.00 0.00 0.00 92 1014.3
20260503040455 10 7 0.0 0.0 0.00 0.00 0.00 91 1014.5
20260503035952 10 0 0.0 0.0 0.00 0.00 0.00 91 1014.5
20260503035449 10 327 0.0 0.0 0.00 0.00 0.00 91 1014.4
20260503034947 10 13 0.0 0.0 0.00 0.00 0.00 91 1014.4
20260503034444 10 354 1.6 6.4 0.00 0.00 0.00 91 1014.3
20260503033941 10 11 0.0 0.0 0.00 0.00 0.00 91 1014.4
20260503033438 10 19 0.0 0.0 0.00 0.00 0.00 91 1014.1
20260503032936 10 355 6.4 6.4 0.00 0.00 0.00 91 1014.1
20260503032435 10 359 3.2 6.4 0.00 0.00 0.00 91 1014.3
20260503031932 10 10 3.2 6.4 0.00 0.00 0.00 90 1014.4
20260503031429 10 356 0.0 1.6 0.00 0.00 0.00 90 1014.1
20260503030926 10 353 6.4 11.3 0.00 0.00 0.00 90 1014.3
20260503030422 10 339 4.8 6.4 0.00 0.00 0.00 90 1014.1
20260503025919 10 328 6.4 9.7 0.00 0.00 0.00 90 1014.1
20260503025416 10 335 3.2 4.8 0.00 0.00 0.00 90 1014.2
20260503024914 11 342 4.8 9.7 0.00 0.00 0.00 90 1014.2
20260503024410 10 337 1.6 3.2 0.00 0.00 0.00 90 1014.0
20260503023908 10 6 0.0 0.0 0.00 0.00 0.00 89 1014.1
20260503023405 11 16 1.6 3.2 0.00 0.00 0.00 89 1014.1
20260503022902 11 341 9.7 11.3 0.00 0.00 0.00 89 1014.2
20260503022401 11 350 8.0 11.3 0.00 0.00 0.00 89 1014.2
20260503021858 11 346 6.4 9.7 0.00 0.00 0.00 89 1013.9
20260503021354 11 351 0.0 3.2 0.00 0.00 0.00 89 1014.1
20260503020851 11 343 9.7 12.9 0.00 0.00 0.00 88 1014.1
20260503020349 11 348 6.4 9.7 0.00 0.00 0.00 88 1014.2
20260503015845 11 358 4.8 11.3 0.00 0.00 0.00 88 1014.3
20260503015342 11 344 1.6 3.2 0.00 0.00 0.00 88 1014.5
20260503014838 11 18 6.4 6.4 0.00 0.00 0.00 88 1014.4
20260503014336 11 350 6.4 14.5 0.00 0.00 0.00 88 1014.3
20260503013833 11 1 3.2 4.8 0.00 0.00 0.00 87 1014.4
20260503013330 11 11 6.4 9.7 0.00 0.00 0.00 87 1014.4
20260503012827 11 336 9.7 12.9 0.00 0.00 0.00 87 1014.6
20260503012325 11 352 8.0 12.9 0.00 0.00 0.00 87 1014.5
20260503011822 11 348 6.4 11.3 0.00 0.00 0.00 86 1014.5
20260503011319 11 349 9.7 12.9 0.00 0.00 0.00 86 1014.6
20260503010815 11 340 6.4 9.7 0.00 0.00 0.00 86 1014.5
20260503010313 11 5 9.7 12.9 0.00 0.00 0.00 85 1014.4
20260503005809 12 336 11.3 16.1 0.00 0.00 0.00 85 1014.2
20260503005307 12 320 11.3 17.7 0.00 0.00 0.00 84 1014.4
20260503004802 12 325 8.0 14.5 0.00 0.00 0.00 83 1014.5
20260503004301 13 324 6.4 12.9 0.00 0.00 0.00 83 1014.4
20260503003758 13 338 9.7 11.3 0.00 0.00 0.00 83 1014.2
20260503003254 13 320 6.4 11.3 0.00 0.00 0.00 83 1014.4
20260503002751 13 356 6.4 9.7 0.00 0.00 0.00 82 1014.2
20260503002248 13 334 8.0 11.3 0.00 0.00 0.00 83 1014.4
20260503001744 13 316 8.0 12.9 0.00 0.00 0.00 82 1014.6
20260503001240 13 315 4.8 9.7 0.00 0.00 0.00 81 1014.4
20260503000739 13 355 3.2 6.4 0.00 0.00 0.00 81 1014.6
20260503000236 14 326 12.9 17.7 0.00 0.00 0.00 81 1014.4
20260502235733 13 311 6.4 11.3 0.00 0.00 0.00 82 1014.5
20260502235231 14 328 8.0 12.9 0.00 0.00 0.00 81 1014.5
20260502234726 13 321 4.8 9.7 0.00 0.00 0.00 82 1014.4
20260502234225 14 331 8.0 14.5 0.00 0.00 0.00 81 1014.5
20260502233720 14 325 9.7 14.5 0.00 0.00 0.00 81 1014.7
20260502233217 14 332 9.7 12.9 0.00 0.00 0.00 82 1014.7
20260502232712 14 328 8.0 12.9 0.00 0.00 0.00 82 1014.7
20260502232210 14 332 6.4 14.5 0.00 0.00 0.00 82 1014.9
20260502231707 14 328 6.4 14.5 0.00 0.00 0.00 81 1014.9
20260502231204 14 0 9.7 16.1 0.00 0.00 0.00 82 1015.0
20260502230703 14 350 11.3 16.1 0.00 0.00 0.00 82 1015.1